Regional Weather Roundup
Issued by NWS

Home | Current Version | Previous Version | Graphics & Text | Print | Product List | Glossary On
Versions: 1 2 3 4 5 6 7 8 9 10 11 12 13 14 15 16 17 18 19 20 21 22 23 24 25 26 27 28 29 30 31 32 33 34 35 36 37 38 39 40 41 42 43 44 45 46 47 48 49 50
000
ASUS43 KDMX 202107
RWRIA

WEATHER ROUNDUP FOR IOWA
NATIONAL WEATHER SERVICE DES MOINES IA
400 PM CDT MON APR 20 2015

NOTE: "FAIR" INDICATES FEW OR NO CLOUDS BELOW 12,000 FEET WITH NO
SIGNIFICANT WEATHER AND/OR OBSTRUCTIONS TO VISIBILITY.

* - THESE STATIONS ARE NOT NWS STATIONS...THUS NOT UNDER NWS
QUALITY CONTROL.  THEY ALSO DO NOT REPORT WEATHER SUCH
AS PRECIPITATION OR FOG.

IAZ001>003-012>014-020>022-031>034-043>046-202200-
   NORTHWEST IOWA

CITY           SKY/WX    TMP DP  RH WIND       PRES   REMARKS
CARROLL *      SUNNY     54  19  26 W30G40    29.67F
CHEROKEE *     SUNNY     52  14  22 NW23G35   29.67S
DENISON *      SUNNY     54  16  22 NW23G38   29.68F
LE MARS *      SUNNY     55  10  16 NW21G40   29.70S
ORANGE CITY *  SUNNY     52  18  25 NW30G43   29.67S
SHELDON *      MOSUNNY   50  21  32 NW31G43   29.64S
SIOUX CITY     SUNNY     58  12  16 NW31G43   29.68F
SPENCER        PTSUNNY   53  24  32 NW29G41   29.64S
STORM LAKE *   SUNNY     52  16  24 NW25G41   29.66F
$$

IAZ055>058-069>071-079>083-090>094-202200-
   SOUTHWEST IOWA

CITY           SKY/WX    TMP DP  RH WIND       PRES   REMARKS
ATLANTIC *     MOSUNNY   55  21  26 NW28G41   29.72F
AUDUBON *      MOSUNNY   54  14  20 W21G29    29.71F
CLARINDA *     MOSUNNY   55  21  26 NW25G38   29.78F
COUNCIL BLFS * SUNNY     57  18  21 NW22G37   29.75S
CRESTON *      PTSUNNY   54  27  35 W26G37    29.72F
HARLAN  *      MOSUNNY   55  21  26 NW32G40   29.75S
LAMONI         PTSUNNY   54  29  38 W29G38    29.74F
RED OAK *      MOSUNNY   57  21  24 NW21G33   29.75F
SHENANDOAH *   PTSUNNY   57  23  26 NW22G30   29.78F
$$

IAZ047>049-059>061-072>074-084-202200-
   CENTRAL IOWA

CITY           SKY/WX    TMP DP  RH WIND       PRES   REMARKS
AMES           PTSUNNY   51  25  36 NW26G35   29.65F
ANKENY *       PTSUNNY   54  25  32 NW22G35   29.66F
CHARITON *     PTSUNNY   54  28  37 W24G39    29.71S
DES MOINES       N/A     57  25  29 NW25G35   29.67F
GRINNELL*      PTSUNNY   50  32  50 W25G35    29.65F
KNOXVILLE *    PTSUNNY   52  27  37 W25G36    29.67F
MARSHALLTOWN   CLOUDY    48  34  58 NW22G29   29.63S
PELLA *        MOSUNNY   52  32  46 NW20G28   29.69S
PERRY *          N/A     54  28  37 NW22G32   29.68F
$$

IAZ004>006-015-016-023>025-035-036-202200-
   NORTH CENTRAL IOWA

CITY           SKY/WX    TMP DP  RH WIND       PRES   REMARKS
ALGONA *       PTSUNNY   46  34  61 NW17G25   29.64R
CLARION *      PTSUNNY   48  32  53 NW26      29.62F
ESTHERVILLE    PTSUNNY   45  32  60 NW20G30   29.63F
FORT DODGE *   PTSUNNY   54  28  37 W20G28    29.65S
MASON CITY     LGT RAIN  40  34  79 NW23G32   29.63R WCI  30
FOREST CITY *  CLOUDY    39  32  75 NW20G26   29.62R WCI  30
IOWA FALLS *   CLOUDY    48  36  61 NW25G31   29.63S
$$

IAZ007>011-017>019-026>030-037>042-050>054-066-202200-
   NORTHEAST IOWA

CITY           SKY/WX    TMP DP  RH WIND       PRES   REMARKS
CEDAR RAPIDS   LGT RAIN  44  38  79 W23G31    29.61S
CHARLES CITY * CLOUDY    43  34  70 W30G36    29.60R
CLINTON *      PTSUNNY   48  32  53 W32G39    29.61S
DECORAH *      CLOUDY    43  30  61 NW16G31   29.53S
DUBUQUE        CLOUDY    44  32  62 W25G36    29.57R
MONTICELLO *   CLOUDY    46  34  61 NW23G33   29.59R
OELWEIN *      CLOUDY    46  34  61 NW31G43   29.58S
WATERLOO       CLOUDY    48  33  56 NW18G26   29.60S
$$

IAZ064-065-067-068-078-202200-
   EAST CENTRAL IOWA

CITY           SKY/WX    TMP DP  RH WIND       PRES   REMARKS
DAVENPORT      CLOUDY    48  32  53 W30G38    29.61R
IOWA CITY      CLOUDY    47  35  63 NW16G24   29.65R
MT. PLEASANT * CLOUDY    48  30  49 W18G26    29.68R
MUSCATINE *    CLOUDY    50  34  53 W23       29.65S
QUAD CITIES    PTSUNNY   49  32  52 W22G35    29.61R
$$

IAZ062-063-075>077-085>089-095>099-202200-
   SOUTHEAST IOWA

CITY           SKY/WX    TMP DP  RH WIND       PRES   REMARKS
BURLINGTON     CLOUDY    51  32  48 W14G30    29.67S
FAIRFIELD *    PTSUNNY   52  32  46 W20G31    29.67S
FORT MADISON * CLOUDY    52  34  50 W16G31    29.69S
KEOKUK *       CLOUDY    52  32  46 W17G24    29.70S
OSKALOOSA *    CLOUDY    52  30  43 W31G38    29.67F
CENTERVILLE *  MOSUNNY   50  32  50 W25       29.73S
OTTUMWA        PTSUNNY   51  30  44 W22G29    29.68S
WASHINGTON *   CLOUDY    50  36  57 W23G32    29.66S
$$

ABBREVIATIONS USED IN REMARKS
   TC - TEMPERATURES IN CELSIUS
  WCI - WIND CHILL INDEX
   HX - HEAT INDEX
  VSB - VISIBILITY
$$




USA.gov is the U.S. government's official web portal to all federal, state and local government web resources and services.